{"data":{"norad_id":60519,"intl_designator":"2024-149BD","name":"FLOCK 4BE-28","alt_names":[],"object_type":"PAYLOAD","status":"ACTIVE","operator":null,"country":"US","launch_date":"2024-08-16","launch_site_code":"AFWTR","launch_vehicle":null,"mission":null,"orbit_class":"UNKNOWN","rcs_meters":null,"size_class":null,"mass_kg":null,"dimensions":null,"purposes":["earth_obs"],"wikipedia_slug":null,"has_3d_model":false,"image_url":null,"decayed_at":null,"tle_current":{"epoch":"2026-05-25T03:11:14.655264Z","epoch_age_seconds":57532,"freshness":"FRESH","line1":"1 60519U 24149BD  26145.13280851  .00017846  00000+0  39309-3 0  9999","line2":"2 60519  97.3744 230.5618 0004131  33.2655 326.8852 15.43992725 98889","mean_motion":15.43992725,"eccentricity":0.0004131,"inclination_deg":97.3744,"raan_deg":230.5618,"arg_perigee_deg":33.2655,"mean_anomaly_deg":326.8852,"bstar":0.00039309,"rev_number":9888,"period_min":93.264688148061,"perigee_km":431.5251253075,"apogee_km":437.15359327555,"semimajor_km":6812.4763592915,"source":"CELESTRAK","updated_at":"2026-05-25T13:38:13.334647Z"}}}